Flag for U.S.A. Weather past 2 weeks in Jacksonville, Florida, U.S.A.

Now
83 °F

Passing clouds.


Feels Like: 88 °F
Forecast: 78 / 98 °F
Wind: 6 mph from Southwest

Location: Jacksonville Naval Air Station

Current Time: Aug 22, 2014 at 12:43:50 AM

Latest Report: Aug 21, 2014 at 11:53 PM


Visibility: 10 mi

Pressure: 30.09 "Hg

Humidity: 68%

Dew point: 71 °F

Location of JacksonvilleLocation

Historic Weather in Jacksonville — Graph

°F

Jacksonville temperature yesterday

Maximum temperature yesterday: 99 °F (at 2:53 PM)
Minimum temperature yesterday: 81 °F (at 5:53 AM)
Average temperature yesterday: 88 °F

Past Weeks' High & Low Weather Summary

 TemperatureHumidityPressure
High99 °F (Aug 20, 4:53 PM)88% (Aug 14, 4:53 AM)30.12 "Hg (Aug 14, 4:53 AM)
Low77 °F (Aug 15, 5:53 AM)35% (Aug 21, 4:53 PM)29.90 "Hg (Aug 12, 6:53 PM)
Average85 °F69%29.99 "Hg
* Reported Aug 6 11:53 PM — Aug 21 11:53 PM, Jacksonville, Weather by CustomWeather, © 2014

Note: Actual official high and low records may vary slightly from our data, if they occured in-between our weather recording intervals... More about our weather records

Advertising

Jacksonville weather history for previous 24 hours

 ConditionsComfort  
Time TempWeatherWind HumidityBarometerVisibility
11:53 PM
Aug 21
83 °FPassing clouds.6 mph68%30.09 "Hg10 mi
10:53 PM84 °FPassing clouds.6 mph65%30.09 "Hg10 mi
9:53 PM85 °FPassing clouds.7 mph63%30.09 "Hg10 mi
8:53 PM86 °FPartly sunny.9 mph61%30.08 "Hg10 mi
7:53 PM88 °FBroken clouds.10 mph59%30.05 "Hg10 mi
6:53 PM90 °FPartly sunny.8 mph54%30.03 "Hg10 mi
5:53 PM95 °FBroken clouds.7 mph43%30.02 "Hg10 mi
4:53 PM99 °FScattered clouds.5 mph35%30.01 "Hg10 mi
3:53 PM99 °FScattered clouds.8 mph38%30.03 "Hg10 mi
2:53 PM99 °FScattered clouds.7 mph39%30.05 "Hg10 mi
1:53 PM96 °FScattered clouds.5 mph44%30.07 "Hg10 mi
12:53 PM96 °FScattered clouds.3 mph44%30.08 "Hg10 mi
11:53 AM92 °FScattered clouds.6 mph56%30.10 "Hg10 mi
10:53 AM91 °FScattered clouds.No wind56%30.12 "Hg10 mi
9:53 AM87 °FScattered clouds.6 mph63%30.12 "Hg10 mi
8:53 AM85 °FScattered clouds.6 mph70%30.12 "Hg10 mi
7:53 AM82 °FPassing clouds.5 mph79%30.10 "Hg10 mi
6:53 AM81 °FPassing clouds.No wind82%30.06 "Hg7 mi
5:53 AM81 °FClear.No wind82%30.04 "Hg10 mi
4:53 AM82 °FClear.5 mph79%30.04 "Hg10 mi
3:53 AM83 °FClear.3 mph77%30.05 "Hg10 mi
2:53 AM83 °FClear.6 mph77%30.06 "Hg10 mi
1:53 AM84 °FPassing clouds.7 mph74%30.06 "Hg10 mi
12:53 AM85 °FPassing clouds.9 mph70%30.07 "Hg10 mi
Weather by CustomWeather, © 2014

See weather overviewHow to use our weather pages